| time (UTC) | temp F | wind direction | speed MPH | gust MPH | rain 1hr in | rain 24hr in | rain mn in | humidity % | barometer mb |
| 20260831103242 | 79 | 196 | 0.0 | 2.0 | 0.00 | 0.00 | 0.00 | 76 | 1014.7 |
| 20260831102741 | 79 | 189 | 0.0 | 0.0 | 0.00 | 0.00 | 0.00 | 76 | 1014.8 |
| 20260831102236 | 79 | 181 | 0.0 | 0.0 | 0.00 | 0.00 | 0.00 | 76 | 1014.8 |
| 20260831101732 | 79 | 188 | 0.0 | 0.0 | 0.00 | 0.00 | 0.00 | 77 | 1014.6 |
| 20260831101227 | 79 | 191 | 4.0 | 6.0 | 0.00 | 0.00 | 0.00 | 76 | 1014.8 |
| 20260831100723 | 79 | 197 | 1.0 | 3.0 | 0.00 | 0.00 | 0.00 | 76 | 1014.6 |
| 20260831100219 | 79 | 196 | 3.0 | 4.0 | 0.00 | 0.00 | 0.00 | 76 | 1014.8 |
| 20260831095718 | 79 | 195 | 3.0 | 3.0 | 0.00 | 0.00 | 0.00 | 75 | 1014.8 |
| 20260831095213 | 80 | 188 | 0.0 | 0.0 | 0.00 | 0.00 | 0.00 | 75 | 1014.9 |
| 20260831094708 | 80 | 193 | 3.0 | 3.0 | 0.00 | 0.00 | 0.00 | 75 | 1014.7 |
| 20260831094204 | 80 | 209 | 5.0 | 6.0 | 0.00 | 0.00 | 0.00 | 74 | 1014.4 |
| 20260831093659 | 80 | 186 | 3.0 | 4.0 | 0.00 | 0.00 | 0.00 | 74 | 1014.9 |
| 20260831093154 | 80 | 207 | 0.0 | 1.0 | 0.00 | 0.00 | 0.00 | 73 | 1014.6 |
| 20260831092651 | 80 | 190 | 0.0 | 0.0 | 0.00 | 0.00 | 0.00 | 73 | 1014.8 |
| 20260831092147 | 80 | 202 | 3.0 | 6.0 | 0.00 | 0.00 | 0.00 | 73 | 1014.4 |
| 20260831091646 | 81 | 196 | 4.0 | 6.0 | 0.00 | 0.00 | 0.00 | 73 | 1014.7 |
| 20260831091142 | 81 | 205 | 6.0 | 7.0 | 0.00 | 0.00 | 0.00 | 72 | 1014.5 |
| 20260831090637 | 81 | 181 | 3.0 | 3.0 | 0.00 | 0.00 | 0.00 | 72 | 1014.4 |
| 20260831090133 | 81 | 183 | 4.0 | 4.0 | 0.00 | 0.00 | 0.00 | 72 | 1014.5 |
| 20260831085628 | 81 | 205 | 3.0 | 3.0 | 0.00 | 0.00 | 0.00 | 71 | 1014.6 |
| 20260831085123 | 82 | 185 | 4.0 | 4.0 | 0.00 | 0.00 | 0.00 | 71 | 1014.2 |
| 20260831084619 | 82 | 196 | 3.0 | 3.0 | 0.00 | 0.00 | 0.00 | 71 | 1014.6 |
| 20260831084115 | 82 | 164 | 6.0 | 7.0 | 0.00 | 0.00 | 0.00 | 70 | 1014.2 |
| 20260831083611 | 82 | 179 | 4.0 | 4.0 | 0.00 | 0.00 | 0.00 | 70 | 1014.4 |
| 20260831083106 | 82 | 201 | 3.0 | 3.0 | 0.00 | 0.00 | 0.00 | 70 | 1013.9 |
| 20260831082604 | 82 | 215 | 4.0 | 6.0 | 0.00 | 0.00 | 0.00 | 69 | 1014.0 |
| 20260831082100 | 82 | 229 | 4.0 | 6.0 | 0.00 | 0.00 | 0.00 | 69 | 1014.4 |
| 20260831081556 | 82 | 202 | 5.0 | 8.0 | 0.00 | 0.00 | 0.00 | 68 | 1014.1 |
| 20260831081051 | 82 | 199 | 3.0 | 4.0 | 0.00 | 0.00 | 0.00 | 68 | 1014.2 |
| 20260831080546 | 83 | 182 | 4.0 | 4.0 | 0.00 | 0.00 | 0.00 | 67 | 1014.1 |
| 20260831080042 | 83 | 205 | 6.0 | 7.0 | 0.00 | 0.00 | 0.00 | 67 | 1014.1 |
| 20260831075536 | 83 | 184 | 6.0 | 8.0 | 0.00 | 0.00 | 0.00 | 66 | 1014.4 |
| 20260831075032 | 83 | 187 | 3.0 | 4.0 | 0.00 | 0.00 | 0.00 | 66 | 1014.0 |
| 20260831074531 | 83 | 194 | 3.0 | 7.0 | 0.00 | 0.00 | 0.00 | 65 | 1014.2 |
| 20260831074026 | 83 | 186 | 6.0 | 7.0 | 0.00 | 0.00 | 0.00 | 65 | 1014.2 |
| 20260831073521 | 83 | 178 | 4.0 | 4.0 | 0.00 | 0.00 | 0.00 | 65 | 1014.1 |
| 20260831073020 | 83 | 202 | 5.0 | 7.0 | 0.00 | 0.00 | 0.00 | 64 | 1014.2 |
| 20260831072516 | 83 | 197 | 4.0 | 4.0 | 0.00 | 0.00 | 0.00 | 64 | 1014.1 |
| 20260831072012 | 83 | 210 | 3.0 | 3.0 | 0.00 | 0.00 | 0.00 | 63 | 1014.2 |
| 20260831071510 | 83 | 184 | 3.0 | 4.0 | 0.00 | 0.00 | 0.00 | 63 | 1014.2 |
| 20260831071006 | 83 | 201 | 4.0 | 6.0 | 0.00 | 0.00 | 0.00 | 62 | 1014.1 |
| 20260831070504 | 83 | 190 | 4.0 | 4.0 | 0.00 | 0.00 | 0.00 | 62 | 1014.2 |
| 20260831065959 | 83 | 182 | 1.0 | 3.0 | 0.00 | 0.00 | 0.00 | 61 | 1014.1 |
| 20260831065457 | 83 | 179 | 3.0 | 4.0 | 0.00 | 0.00 | 0.00 | 60 | 1014.4 |
| 20260831064952 | 83 | 182 | 5.0 | 6.0 | 0.00 | 0.00 | 0.00 | 60 | 1014.6 |
| 20260831064447 | 83 | 173 | 7.0 | 9.0 | 0.00 | 0.00 | 0.00 | 59 | 1014.4 |
| 20260831063942 | 84 | 182 | 6.0 | 9.0 | 0.00 | 0.00 | 0.00 | 59 | 1014.4 |
| 20260831063437 | 84 | 211 | 3.0 | 3.0 | 0.00 | 0.00 | 0.00 | 58 | 1014.4 |
| 20260831062931 | 84 | 198 | 5.0 | 7.0 | 0.00 | 0.00 | 0.00 | 57 | 1014.4 |
| 20260831062429 | 84 | 194 | 4.0 | 6.0 | 0.00 | 0.00 | 0.00 | 57 | 1014.2 |
| 20260831061926 | 84 | 184 | 4.0 | 4.0 | 0.00 | 0.00 | 0.00 | 56 | 1014.2 |
| 20260831061425 | 84 | 180 | 3.0 | 3.0 | 0.00 | 0.00 | 0.00 | 56 | 1014.5 |
| 20260831060921 | 84 | 193 | 5.0 | 6.0 | 0.00 | 0.00 | 0.00 | 55 | 1014.1 |
| 20260831060415 | 84 | 193 | 4.0 | 4.0 | 0.00 | 0.00 | 0.00 | 55 | 1014.1 |
| 20260831055909 | 84 | 190 | 2.0 | 3.0 | 0.00 | 0.00 | 0.00 | 55 | 1014.1 |
| 20260831055405 | 84 | 179 | 2.0 | 2.0 | 0.00 | 0.00 | 0.00 | 55 | 1014.1 |
| 20260831054900 | 84 | 194 | 2.0 | 3.0 | 0.00 | 0.00 | 0.00 | 55 | 1014.6 |
| 20260831054354 | 84 | 203 | 3.0 | 4.0 | 0.00 | 0.00 | 0.00 | 54 | 1014.0 |
| 20260831053853 | 84 | 190 | 2.0 | 3.0 | 0.00 | 0.00 | 0.00 | 54 | 1014.1 |
| 20260831053352 | 84 | 189 | 3.0 | 4.0 | 0.00 | 0.00 | 0.00 | 55 | 1014.2 |
| 20260831052846 | 84 | 187 | 2.0 | 2.0 | 0.00 | 0.00 | 0.00 | 55 | 1014.0 |
| 20260831052341 | 84 | 176 | 2.0 | 2.0 | 0.00 | 0.00 | 0.00 | 55 | 1014.4 |
| 20260831051839 | 84 | 143 | 3.0 | 3.0 | 0.00 | 0.00 | 0.00 | 55 | 1014.1 |
| 20260831051338 | 84 | 187 | 0.0 | 0.0 | 0.00 | 0.00 | 0.00 | 55 | 1014.2 |
| 20260831050833 | 84 | 140 | 3.0 | 4.0 | 0.00 | 0.00 | 0.00 | 56 | 1014.0 |
| 20260831050331 | 84 | 179 | 0.0 | 0.0 | 0.00 | 0.00 | 0.00 | 56 | 1014.0 |
| 20260831045826 | 84 | 180 | 1.0 | 2.0 | 0.00 | 0.00 | 0.00 | 56 | 1014.2 |
| 20260831045320 | 84 | 186 | 1.0 | 1.0 | 0.00 | 0.00 | 0.00 | 56 | 1013.9 |
| 20260831044816 | 84 | 174 | 0.0 | 0.0 | 0.00 | 0.00 | 0.00 | 57 | 1013.9 |
| 20260831044310 | 84 | 172 | 1.0 | 1.0 | 0.00 | 0.00 | 0.00 | 57 | 1014.1 |
| 20260831043807 | 83 | 166 | 4.0 | 6.0 | 0.00 | 0.00 | 0.00 | 57 | 1013.9 |
| 20260831043306 | 83 | 181 | 0.0 | 0.0 | 0.00 | 0.00 | 0.00 | 57 | 1013.8 |
| 20260831042801 | 83 | 176 | 0.0 | 0.0 | 0.00 | 0.00 | 0.00 | 57 | 1014.0 |
| 20260831042300 | 83 | 165 | 0.0 | 0.0 | 0.00 | 0.00 | 0.00 | 58 | 1014.0 |
| 20260831041756 | 84 | 186 | 0.0 | 0.0 | 0.00 | 0.00 | 0.00 | 57 | 1014.2 |
| 20260831041255 | 84 | 178 | 0.0 | 0.0 | 0.00 | 0.00 | 0.00 | 57 | 1014.1 |
| 20260831040750 | 84 | 179 | 0.0 | 0.0 | 0.00 | 0.00 | 0.00 | 57 | 1013.9 |
| 20260831040249 | 84 | 180 | 0.0 | 0.0 | 0.00 | 0.00 | 0.00 | 57 | 1013.9 |
| 20260831035748 | 84 | 182 | 0.0 | 0.0 | 0.00 | 0.00 | 0.00 | 56 | 1013.9 |
| 20260831035247 | 84 | 178 | 0.0 | 0.0 | 0.00 | 0.00 | 0.00 | 56 | 1013.7 |
| 20260831034747 | 84 | 176 | 0.0 | 0.0 | 0.00 | 0.00 | 0.00 | 56 | 1013.6 |
| 20260831034243 | 84 | 176 | 0.0 | 0.0 | 0.00 | 0.00 | 0.00 | 56 | 1013.7 |
| 20260831033738 | 85 | 176 | 0.0 | 0.0 | 0.00 | 0.00 | 0.00 | 55 | 1013.7 |
| 20260831033237 | 85 | 178 | 0.0 | 0.0 | 0.00 | 0.00 | 0.00 | 55 | 1013.7 |
| 20260831032733 | 85 | 175 | 0.0 | 0.0 | 0.00 | 0.00 | 0.00 | 55 | 1013.4 |
| 20260831032227 | 85 | 176 | 0.0 | 0.0 | 0.00 | 0.00 | 0.00 | 54 | 1013.7 |
| 20260831031722 | 85 | 175 | 0.0 | 0.0 | 0.00 | 0.00 | 0.00 | 54 | 1013.6 |
| 20260831031217 | 85 | 175 | 0.0 | 0.0 | 0.00 | 0.00 | 0.00 | 54 | 1013.6 |
| 20260831030716 | 86 | 178 | 0.0 | 0.0 | 0.00 | 0.00 | 0.00 | 54 | 1013.7 |
| 20260831030214 | 86 | 176 | 0.0 | 0.0 | 0.00 | 0.00 | 0.00 | 54 | 1013.6 |
| 20260831025708 | 86 | 175 | 0.0 | 0.0 | 0.00 | 0.00 | 0.00 | 53 | 1013.4 |
| 20260831025203 | 86 | 179 | 0.0 | 0.0 | 0.00 | 0.00 | 0.00 | 54 | 1013.3 |
| 20260831024659 | 86 | 176 | 0.0 | 0.0 | 0.00 | 0.00 | 0.00 | 53 | 1013.3 |
| 20260831024157 | 86 | 181 | 0.0 | 0.0 | 0.00 | 0.00 | 0.00 | 53 | 1013.1 |
| 20260831023655 | 86 | 181 | 0.0 | 0.0 | 0.00 | 0.00 | 0.00 | 53 | 1013.3 |
| 20260831023149 | 86 | 163 | 0.0 | 0.0 | 0.00 | 0.00 | 0.00 | 52 | 1013.2 |
| 20260831022644 | 86 | 176 | 0.0 | 0.0 | 0.00 | 0.00 | 0.00 | 52 | 1013.2 |
| 20260831022140 | 87 | 176 | 0.0 | 0.0 | 0.00 | 0.00 | 0.00 | 51 | 1013.0 |
| 20260831021639 | 87 | 175 | 0.0 | 0.0 | 0.00 | 0.00 | 0.00 | 51 | 1013.1 |
| 20260831021134 | 87 | 175 | 0.0 | 0.0 | 0.00 | 0.00 | 0.00 | 51 | 1013.2 |
| 20260831020630 | 87 | 178 | 0.0 | 0.0 | 0.00 | 0.00 | 0.00 | 50 | 1012.7 |
| 20260831020124 | 88 | 176 | 0.0 | 0.0 | 0.00 | 0.00 | 0.00 | 50 | 1013.0 |
| 20260831015620 | 88 | 178 | 0.0 | 0.0 | 0.00 | 0.00 | 0.00 | 49 | 1012.7 |
| 20260831015120 | 88 | 176 | 0.0 | 0.0 | 0.00 | 0.00 | 0.00 | 49 | 1012.6 |
| 20260831014615 | 89 | 181 | 0.0 | 0.0 | 0.00 | 0.00 | 0.00 | 48 | 1012.5 |
| 20260831014111 | 89 | 182 | 0.0 | 0.0 | 0.00 | 0.00 | 0.00 | 48 | 1012.5 |
| 20260831013607 | 89 | 178 | 0.0 | 0.0 | 0.00 | 0.00 | 0.00 | 47 | 1012.3 |
| 20260831013106 | 90 | 175 | 0.0 | 0.0 | 0.00 | 0.00 | 0.00 | 47 | 1012.2 |
| 20260831012601 | 90 | 176 | 0.0 | 0.0 | 0.00 | 0.00 | 0.00 | 47 | 1012.3 |
| 20260831012056 | 90 | 176 | 1.0 | 2.0 | 0.00 | 0.00 | 0.00 | 46 | 1012.6 |
| 20260831011555 | 91 | 181 | 0.0 | 0.0 | 0.00 | 0.00 | 0.00 | 46 | 1012.3 |
| 20260831011051 | 91 | 176 | 0.0 | 0.0 | 0.00 | 0.00 | 0.00 | 46 | 1012.3 |
| 20260831010546 | 91 | 188 | 1.0 | 1.0 | 0.00 | 0.00 | 0.00 | 46 | 1012.4 |
| 20260831010042 | 92 | 177 | 0.0 | 0.0 | 0.00 | 0.00 | 0.00 | 46 | 1012.3 |
| 20260831005537 | 92 | 175 | 0.0 | 0.0 | 0.00 | 0.00 | 0.00 | 45 | 1012.3 |
| 20260831005036 | 93 | 182 | 0.0 | 0.0 | 0.00 | 0.00 | 0.00 | 45 | 1012.2 |
| 20260831004532 | 93 | 157 | 0.0 | 0.0 | 0.00 | 0.00 | 0.00 | 45 | 1012.4 |
| 20260831004028 | 93 | 169 | 2.0 | 2.0 | 0.00 | 0.00 | 0.00 | 44 | 1012.3 |
| 20260831003524 | 94 | 181 | 0.0 | 0.0 | 0.00 | 0.00 | 0.00 | 43 | 1012.3 |
| 20260831003020 | 94 | 209 | 1.0 | 4.0 | 0.00 | 0.00 | 0.00 | 43 | 1012.0 |
| 20260831002518 | 95 | 211 | 1.0 | 2.0 | 0.00 | 0.00 | 0.00 | 42 | 1012.2 |
| 20260831002013 | 95 | 190 | 1.0 | 2.0 | 0.00 | 0.00 | 0.00 | 41 | 1012.0 |
| 20260831001508 | 95 | 169 | 3.0 | 4.0 | 0.00 | 0.00 | 0.00 | 41 | 1012.1 |
| 20260831000959 | 96 | 190 | 2.0 | 3.0 | 0.00 | 0.00 | 0.00 | 40 | 1012.1 |
| 20260831000455 | 96 | 151 | 3.0 | 4.0 | 0.00 | 0.00 | 0.00 | 41 | 1012.0 |
| 20260830235952 | 97 | 181 | 3.0 | 4.0 | 0.00 | 0.00 | 0.00 | 40 | 1012.1 |
| 20260830235448 | 97 | 162 | 2.0 | 3.0 | 0.00 | 0.00 | 0.00 | 39 | 1012.1 |
| 20260830234943 | 97 | 178 | 0.0 | 0.0 | 0.00 | 0.00 | 0.00 | 39 | 1012.4 |
| 20260830234438 | 97 | 147 | 3.0 | 7.0 | 0.00 | 0.00 | 0.00 | 38 | 1012.3 |
| 20260830233934 | 97 | 123 | 5.0 | 7.0 | 0.00 | 0.00 | 0.00 | 38 | 1012.2 |
| 20260830233429 | 98 | 189 | 2.0 | 3.0 | 0.00 | 0.00 | 0.00 | 38 | 1012.2 |
| 20260830232925 | 98 | 165 | 4.0 | 6.0 | 0.00 | 0.00 | 0.00 | 38 | 1012.3 |
| 20260830232421 | 98 | 187 | 6.0 | 8.0 | 0.00 | 0.00 | 0.00 | 37 | 1012.2 |
| 20260830231917 | 98 | 182 | 2.0 | 3.0 | 0.00 | 0.00 | 0.00 | 37 | 1012.4 |
| 20260830231412 | 98 | 141 | 5.0 | 6.0 | 0.00 | 0.00 | 0.00 | 36 | 1012.3 |
| 20260830230911 | 98 | 190 | 7.0 | 8.0 | 0.00 | 0.00 | 0.00 | 36 | 1012.5 |
| 20260830230407 | 98 | 173 | 4.0 | 6.0 | 0.00 | 0.00 | 0.00 | 36 | 1012.3 |
| 20260830225906 | 98 | 215 | 4.0 | 7.0 | 0.00 | 0.00 | 0.00 | 36 | 1012.3 |
| 20260830225401 | 98 | 162 | 6.0 | 9.0 | 0.00 | 0.00 | 0.00 | 35 | 1012.3 |
| 20260830224856 | 97 | 205 | 7.0 | 10.0 | 0.00 | 0.00 | 0.00 | 36 | 1012.4 |
| 20260830224355 | 95 | 174 | 3.0 | 4.0 | 0.00 | 0.00 | 0.00 | 37 | 1012.3 |
| 20260830223852 | 96 | 198 | 3.0 | 3.0 | 0.00 | 0.00 | 0.00 | 37 | 1012.5 |
| 20260830223348 | 96 | 156 | 6.0 | 7.0 | 0.00 | 0.00 | 0.00 | 37 | 1012.4 |
| 20260830222847 | 97 | 181 | 1.0 | 2.0 | 0.00 | 0.00 | 0.00 | 37 | 1012.4 |
| 20260830222343 | 97 | 159 | 1.0 | 2.0 | 0.00 | 0.00 | 0.00 | 37 | 1012.5 |
| 20260830221838 | 98 | 194 | 3.0 | 4.0 | 0.00 | 0.00 | 0.00 | 36 | 1012.7 |
| 20260830221335 | 99 | 197 | 9.0 | 10.0 | 0.00 | 0.00 | 0.00 | 35 | 1012.6 |
| 20260830220830 | 100 | 185 | 5.0 | 8.0 | 0.00 | 0.00 | 0.00 | 35 | 1012.7 |
| 20260830220329 | 100 | 175 | 4.0 | 6.0 | 0.00 | 0.00 | 0.00 | 36 | 1012.5 |
| 20260830215827 | 99 | 159 | 2.0 | 2.0 | 0.00 | 0.00 | 0.00 | 36 | 1012.4 |
| 20260830215322 | 98 | 168 | 6.0 | 8.0 | 0.00 | 0.00 | 0.00 | 36 | 1012.3 |
| 20260830214817 | 97 | 144 | 1.0 | 2.0 | 0.00 | 0.00 | 0.00 | 38 | 1012.7 |
| 20260830214313 | 97 | 161 | 4.0 | 6.0 | 0.00 | 0.00 | 0.00 | 38 | 1012.7 |
| 20260830213812 | 98 | 153 | 6.0 | 7.0 | 0.00 | 0.00 | 0.00 | 36 | 1012.7 |
| 20260830213307 | 96 | 165 | 4.0 | 6.0 | 0.00 | 0.00 | 0.00 | 38 | 1012.6 |
| 20260830212803 | 96 | 167 | 3.0 | 4.0 | 0.00 | 0.00 | 0.00 | 37 | 1012.7 |
| 20260830212258 | 97 | 158 | 3.0 | 3.0 | 0.00 | 0.00 | 0.00 | 38 | 1012.9 |
| 20260830211757 | 98 | 185 | 5.0 | 7.0 | 0.00 | 0.00 | 0.00 | 38 | 1012.8 |
| 20260830211257 | 99 | 145 | 3.0 | 4.0 | 0.00 | 0.00 | 0.00 | 34 | 1012.9 |
| 20260830210753 | 99 | 171 | 10.0 | 11.0 | 0.00 | 0.00 | 0.00 | 34 | 1013.1 |
| 20260830210252 | 99 | 159 | 5.0 | 9.0 | 0.00 | 0.00 | 0.00 | 35 | 1013.2 |
| 20260830205749 | 100 | 179 | 6.0 | 9.0 | 0.00 | 0.00 | 0.00 | 34 | 1013.3 |
| 20260830205244 | 100 | 210 | 7.0 | 8.0 | 0.00 | 0.00 | 0.00 | 33 | 1013.4 |
| 20260830204740 | 99 | 177 | 3.0 | 3.0 | 0.00 | 0.00 | 0.00 | 33 | 1013.5 |
| 20260830204238 | 99 | 141 | 5.0 | 8.0 | 0.00 | 0.00 | 0.00 | 34 | 1013.5 |
| 20260830203735 | 99 | 195 | 7.0 | 9.0 | 0.00 | 0.00 | 0.00 | 34 | 1013.3 |
| 20260830203230 | 100 | 192 | 6.0 | 10.0 | 0.00 | 0.00 | 0.00 | 35 | 1013.5 |
| 20260830202730 | 99 | 198 | 1.0 | 2.0 | 0.00 | 0.00 | 0.00 | 35 | 1013.6 |
| 20260830202225 | 100 | 193 | 3.0 | 3.0 | 0.00 | 0.00 | 0.00 | 34 | 1013.6 |
| 20260830201724 | 100 | 154 | 4.0 | 6.0 | 0.00 | 0.00 | 0.00 | 34 | 1013.6 |
| 20260830201220 | 99 | 190 | 7.0 | 8.0 | 0.00 | 0.00 | 0.00 | 34 | 1013.6 |
| 20260830200715 | 99 | 171 | 4.0 | 7.0 | 0.00 | 0.00 | 0.00 | 34 | 1013.7 |
| 20260830200214 | 99 | 155 | 1.0 | 2.0 | 0.00 | 0.00 | 0.00 | 34 | 1014.0 |
| 20260830195710 | 99 | 147 | 9.0 | 11.0 | 0.00 | 0.00 | 0.00 | 36 | 1013.8 |
| 20260830195208 | 100 | 195 | 7.0 | 10.0 | 0.00 | 0.00 | 0.00 | 35 | 1013.8 |
| 20260830194702 | 98 | 179 | 4.0 | 6.0 | 0.00 | 0.00 | 0.00 | 36 | 1014.0 |
| 20260830194201 | 98 | 188 | 7.0 | 9.0 | 0.00 | 0.00 | 0.00 | 35 | 1014.5 |
| 20260830193656 | 98 | 180 | 9.0 | 13.0 | 0.00 | 0.00 | 0.00 | 35 | 1014.5 |
| 20260830193156 | 98 | 166 | 10.0 | 11.0 | 0.00 | 0.00 | 0.00 | 36 | 1014.6 |
| 20260830192651 | 98 | 197 | 6.0 | 8.0 | 0.00 | 0.00 | 0.00 | 36 | 1014.5 |
| 20260830192146 | 99 | 200 | 6.0 | 8.0 | 0.00 | 0.00 | 0.00 | 36 | 1014.6 |
| 20260830191643 | 99 | 177 | 3.0 | 3.0 | 0.00 | 0.00 | 0.00 | 38 | 1014.6 |
| 20260830191137 | 99 | 66 | 2.0 | 3.0 | 0.00 | 0.00 | 0.00 | 37 | 1014.4 |
| 20260830190633 | 98 | 171 | 5.0 | 7.0 | 0.00 | 0.00 | 0.00 | 37 | 1014.9 |
| 20260830190128 | 97 | 139 | 3.0 | 4.0 | 0.00 | 0.00 | 0.00 | 38 | 1014.7 |
| 20260830185626 | 99 | 140 | 9.0 | 13.0 | 0.00 | 0.00 | 0.00 | 37 | 1015.0 |
| 20260830185123 | 98 | 171 | 6.0 | 8.0 | 0.00 | 0.00 | 0.00 | 38 | 1015.0 |
| 20260830184621 | 97 | 183 | 6.0 | 8.0 | 0.00 | 0.00 | 0.00 | 39 | 1014.9 |
| 20260830184116 | 96 | 156 | 5.0 | 8.0 | 0.00 | 0.00 | 0.00 | 40 | 1015.0 |
| 20260830183611 | 96 | 235 | 9.0 | 11.0 | 0.00 | 0.00 | 0.00 | 41 | 1015.1 |
| 20260830183106 | 97 | 197 | 4.0 | 8.0 | 0.00 | 0.00 | 0.00 | 39 | 1015.3 |
| 20260830182601 | 97 | 168 | 3.0 | 4.0 | 0.00 | 0.00 | 0.00 | 41 | 1015.3 |
| 20260830182052 | 97 | 162 | 1.0 | 2.0 | 0.00 | 0.00 | 0.00 | 42 | 1015.2 |
| 20260830181548 | 96 | 186 | 5.0 | 6.0 | 0.00 | 0.00 | 0.00 | 41 | 1015.3 |
| 20260830181048 | 97 | 205 | 5.0 | 7.0 | 0.00 | 0.00 | 0.00 | 41 | 1015.6 |
| 20260830180547 | 96 | 161 | 4.0 | 7.0 | 0.00 | 0.00 | 0.00 | 40 | 1015.5 |
| 20260830180047 | 96 | 166 | 2.0 | 2.0 | 0.00 | 0.00 | 0.00 | 42 | 1015.6 |
| 20260830175545 | 96 | 122 | 4.0 | 7.0 | 0.00 | 0.00 | 0.00 | 42 | 1015.9 |
| 20260830175041 | 96 | 158 | 9.0 | 13.0 | 0.00 | 0.00 | 0.00 | 41 | 1015.9 |
| 20260830174536 | 95 | 192 | 9.0 | 10.0 | 0.00 | 0.00 | 0.00 | 42 | 1015.8 |
| 20260830174031 | 96 | 203 | 5.0 | 7.0 | 0.00 | 0.00 | 0.00 | 42 | 1016.0 |
| 20260830173527 | 95 | 172 | 4.0 | 6.0 | 0.00 | 0.00 | 0.00 | 42 | 1016.1 |
| 20260830173022 | 95 | 181 | 6.0 | 7.0 | 0.00 | 0.00 | 0.00 | 42 | 1016.2 |
| 20260830172519 | 95 | 204 | 6.0 | 9.0 | 0.00 | 0.00 | 0.00 | 42 | 1016.3 |
| 20260830172015 | 94 | 167 | 6.0 | 7.0 | 0.00 | 0.00 | 0.00 | 44 | 1016.1 |
| 20260830171510 | 95 | 182 | 3.0 | 4.0 | 0.00 | 0.00 | 0.00 | 44 | 1016.4 |
| 20260830171009 | 95 | 218 | 4.0 | 4.0 | 0.00 | 0.00 | 0.00 | 43 | 1016.2 |
| 20260830170504 | 95 | 188 | 9.0 | 11.0 | 0.00 | 0.00 | 0.00 | 43 | 1016.4 |
| 20260830170003 | 95 | 138 | 3.0 | 4.0 | 0.00 | 0.00 | 0.00 | 44 | 1016.7 |
| 20260830165459 | 93 | 162 | 2.0 | 3.0 | 0.00 | 0.00 | 0.00 | 45 | 1016.6 |
| 20260830164954 | 93 | 176 | 7.0 | 10.0 | 0.00 | 0.00 | 0.00 | 46 | 1016.2 |
| 20260830164450 | 94 | 186 | 7.0 | 9.0 | 0.00 | 0.00 | 0.00 | 46 | 1016.4 |
| 20260830163946 | 94 | 163 | 4.0 | 6.0 | 0.00 | 0.00 | 0.00 | 47 | 1016.4 |
| 20260830163443 | 93 | 173 | 6.0 | 8.0 | 0.00 | 0.00 | 0.00 | 47 | 1016.6 |
| 20260830162941 | 93 | 223 | 5.0 | 7.0 | 0.00 | 0.00 | 0.00 | 48 | 1016.7 |
| 20260830162438 | 92 | 183 | 6.0 | 7.0 | 0.00 | 0.00 | 0.00 | 49 | 1016.7 |
| 20260830161937 | 93 | 193 | 6.0 | 7.0 | 0.00 | 0.00 | 0.00 | 49 | 1016.6 |
| 20260830161432 | 92 | 235 | 7.0 | 8.0 | 0.00 | 0.00 | 0.00 | 49 | 1016.6 |
| 20260830160927 | 92 | 178 | 5.0 | 7.0 | 0.00 | 0.00 | 0.00 | 51 | 1016.7 |
| 20260830160423 | 92 | 172 | 4.0 | 4.0 | 0.00 | 0.00 | 0.00 | 52 | 1016.7 |
| 20260830155918 | 91 | 144 | 5.0 | 7.0 | 0.00 | 0.00 | 0.00 | 53 | 1016.7 |
| 20260830155414 | 91 | 175 | 9.0 | 10.0 | 0.00 | 0.00 | 0.00 | 52 | 1016.6 |
| 20260830154909 | 90 | 175 | 6.0 | 7.0 | 0.00 | 0.00 | 0.00 | 53 | 1016.8 |
| 20260830154405 | 91 | 235 | 6.0 | 7.0 | 0.00 | 0.00 | 0.00 | 54 | 1016.8 |
| 20260830153902 | 90 | 203 | 6.0 | 7.0 | 0.00 | 0.00 | 0.00 | 55 | 1016.8 |
| 20260830153356 | 89 | 143 | 3.0 | 4.0 | 0.00 | 0.00 | 0.00 | 56 | 1016.7 |
| 20260830152855 | 89 | 177 | 8.0 | 9.0 | 0.00 | 0.00 | 0.00 | 56 | 1016.6 |
| 20260830152350 | 89 | 191 | 5.0 | 8.0 | 0.00 | 0.00 | 0.00 | 58 | 1016.8 |
| 20260830151845 | 89 | 183 | 6.0 | 8.0 | 0.00 | 0.00 | 0.00 | 58 | 1016.7 |
| 20260830151344 | 88 | 204 | 5.0 | 6.0 | 0.00 | 0.00 | 0.00 | 58 | 1016.7 |
| 20260830150839 | 87 | 199 | 5.0 | 6.0 | 0.00 | 0.00 | 0.00 | 60 | 1016.8 |
| 20260830150338 | 87 | 190 | 6.0 | 7.0 | 0.00 | 0.00 | 0.00 | 62 | 1016.7 |
| 20260830145833 | 87 | 177 | 5.0 | 7.0 | 0.00 | 0.00 | 0.00 | 63 | 1016.7 |
| 20260830145328 | 86 | 177 | 4.0 | 6.0 | 0.00 | 0.00 | 0.00 | 65 | 1016.7 |
| 20260830144823 | 86 | 192 | 6.0 | 8.0 | 0.00 | 0.00 | 0.00 | 65 | 1016.6 |
| 20260830144319 | 86 | 209 | 4.0 | 6.0 | 0.00 | 0.00 | 0.00 | 66 | 1016.6 |
| 20260830143815 | 86 | 170 | 5.0 | 6.0 | 0.00 | 0.00 | 0.00 | 65 | 1016.7 |
| 20260830143314 | 85 | 186 | 6.0 | 10.0 | 0.00 | 0.00 | 0.00 | 67 | 1016.6 |
| 20260830142809 | 85 | 178 | 6.0 | 8.0 | 0.00 | 0.00 | 0.00 | 67 | 1016.5 |
| 20260830142306 | 85 | 105 | 3.0 | 4.0 | 0.00 | 0.00 | 0.00 | 68 | 1016.6 |
| 20260830141759 | 84 | 175 | 5.0 | 7.0 | 0.00 | 0.00 | 0.00 | 68 | 1016.7 |
| 20260830141254 | 84 | 182 | 6.0 | 7.0 | 0.00 | 0.00 | 0.00 | 69 | 1016.6 |
| 20260830140749 | 83 | 152 | 4.0 | 4.0 | 0.00 | 0.00 | 0.00 | 70 | 1016.5 |
| 20260830140249 | 84 | 158 | 5.0 | 8.0 | 0.00 | 0.00 | 0.00 | 71 | 1016.3 |
| 20260830135744 | 83 | 228 | 4.0 | 4.0 | 0.00 | 0.00 | 0.00 | 71 | 1016.4 |
| 20260830135239 | 83 | 191 | 5.0 | 7.0 | 0.00 | 0.00 | 0.00 | 72 | 1016.3 |
| 20260830134735 | 82 | 185 | 6.0 | 8.0 | 0.00 | 0.00 | 0.00 | 73 | 1016.5 |
| 20260830134230 | 82 | 179 | 0.0 | 0.0 | 0.00 | 0.00 | 0.00 | 75 | 1016.6 |
| 20260830133725 | 82 | 184 | 2.0 | 3.0 | 0.00 | 0.00 | 0.00 | 76 | 1016.4 |
| 20260830133221 | 81 | 183 | 0.0 | 0.0 | 0.00 | 0.00 | 0.00 | 77 | 1016.5 |
| 20260830132716 | 81 | 188 | 3.0 | 4.0 | 0.00 | 0.00 | 0.00 | 78 | 1016.4 |
| 20260830132212 | 81 | 167 | 2.0 | 3.0 | 0.00 | 0.00 | 0.00 | 78 | 1016.3 |
| 20260830131711 | 80 | 177 | 2.0 | 2.0 | 0.00 | 0.00 | 0.00 | 79 | 1016.2 |
| 20260830131206 | 80 | 171 | 0.0 | 0.0 | 0.00 | 0.00 | 0.00 | 79 | 1016.4 |
| 20260830130700 | 80 | 175 | 0.0 | 0.0 | 0.00 | 0.00 | 0.00 | 80 | 1016.1 |
| 20260830130154 | 79 | 184 | 0.0 | 0.0 | 0.00 | 0.00 | 0.00 | 80 | 1016.1 |
| 20260830125649 | 79 | 172 | 2.0 | 2.0 | 0.00 | 0.00 | 0.00 | 81 | 1016.3 |
| 20260830125144 | 79 | 187 | 0.0 | 0.0 | 0.00 | 0.00 | 0.00 | 81 | 1016.1 |
| 20260830124642 | 79 | 187 | 0.0 | 1.0 | 0.00 | 0.00 | 0.00 | 81 | 1016.1 |
| 20260830124138 | 78 | 190 | 0.0 | 0.0 | 0.00 | 0.00 | 0.00 | 81 | 1015.9 |
| 20260830123635 | 78 | 196 | 2.0 | 3.0 | 0.00 | 0.00 | 0.00 | 81 | 1015.9 |
| 20260830123130 | 78 | 207 | 0.0 | 1.0 | 0.00 | 0.00 | 0.00 | 81 | 1015.9 |
| 20260830122627 | 78 | 205 | 2.0 | 2.0 | 0.00 | 0.00 | 0.00 | 81 | 1015.6 |
| 20260830122122 | 78 | 198 | 0.0 | 0.0 | 0.00 | 0.00 | 0.00 | 81 | 1015.6 |
| 20260830121619 | 78 | 212 | 3.0 | 3.0 | 0.00 | 0.00 | 0.00 | 81 | 1015.3 |
| 20260830121117 | 78 | 211 | 3.0 | 4.0 | 0.00 | 0.00 | 0.00 | 81 | 1015.4 |
| 20260830120612 | 78 | 199 | 3.0 | 3.0 | 0.00 | 0.00 | 0.00 | 81 | 1015.2 |
| 20260830120109 | 78 | 206 | 4.0 | 4.0 | 0.00 | 0.00 | 0.00 | 81 | 1015.3 |
| 20260830115605 | 78 | 204 | 5.0 | 6.0 | 0.00 | 0.00 | 0.00 | 81 | 1015.4 |
| 20260830115105 | 78 | 205 | 3.0 | 3.0 | 0.00 | 0.00 | 0.00 | 81 | 1015.2 |
| 20260830114602 | 79 | 202 | 3.0 | 3.0 | 0.00 | 0.00 | 0.00 | 80 | 1015.0 |
| 20260830114101 | 79 | 202 | 5.0 | 6.0 | 0.00 | 0.00 | 0.00 | 80 | 1015.1 |
| 20260830113556 | 79 | 219 | 4.0 | 6.0 | 0.00 | 0.00 | 0.00 | 80 | 1014.8 |
| 20260830113051 | 79 | 210 | 4.0 | 4.0 | 0.00 | 0.00 | 0.00 | 80 | 1015.2 |
| 20260830112547 | 79 | 237 | 4.0 | 4.0 | 0.00 | 0.00 | 0.00 | 80 | 1014.8 |
| 20260830112044 | 79 | 193 | 2.0 | 3.0 | 0.00 | 0.00 | 0.00 | 79 | 1014.8 |
| 20260830111540 | 79 | 206 | 5.0 | 6.0 | 0.00 | 0.00 | 0.00 | 79 | 1014.9 |
| 20260830111036 | 79 | 200 | 6.0 | 8.0 | 0.00 | 0.00 | 0.00 | 79 | 1014.6 |
| 20260830110535 | 79 | 209 | 5.0 | 8.0 | 0.00 | 0.00 | 0.00 | 79 | 1014.4 |
| 20260830110031 | 79 | 190 | 4.0 | 6.0 | 0.00 | 0.00 | 0.00 | 79 | 1014.6 |
| 20260830105526 | 79 | 208 | 6.0 | 8.0 | 0.00 | 0.00 | 0.00 | 79 | 1014.7 |
| 20260830105022 | 79 | 228 | 4.0 | 6.0 | 0.00 | 0.00 | 0.00 | 78 | 1014.6 |
| 20260830104518 | 79 | 187 | 3.0 | 4.0 | 0.00 | 0.00 | 0.00 | 78 | 1014.7 |
| 20260830104014 | 79 | 209 | 3.0 | 3.0 | 0.00 | 0.00 | 0.00 | 78 | 1014.7 |
| 20260830103509 | 79 | 212 | 3.0 | 4.0 | 0.00 | 0.00 | 0.00 | 77 | 1014.7 |